Location: Michelbach Markt
(48.1000°N, 15.7500°E)
Time: 16:16:08
(UTC+02:00)

Envisat - Pass Details

Date: 07 February 2022
Orbit: 764 x 765 km, 98.2° (Epoch: 17 May)

Event Time Altitude Azimuth Distance (km) Brightness Sun altitude
Rises 06:09:57 0° 4° (N) 3,244 6.2 -11.5°
Reaches altitude 10° 06:12:36 10° 352° (N) 2,314 5.3 -11.1°
Maximum altitude 06:16:41 25° 298° (WNW) 1,519 4.0 -10.4°
Drops below altitude 10° 06:20:44 10° 245° (WSW) 2,303 5.0 -9.8°
Sets 06:23:23 0° 232° (SW) 3,225 5.9 -9.3°
